Weather History for Poughkeepsie, NY

Change the Weather History Date:

Sunday, July 14, 2013

  Actual Average Record
Temperature  
Mean Temperature 82 °F 73 °F  
Max Temperature 91 °F 85 °F 99 °F (1954)
Min Temperature 72 °F 61 °F 52 °F (2001)
Degree Days  
Heating Degree Days 0 0  
Month to date heating degree days 0 0  
Since 1 June heating degree days 31 49  
Since 1 July heating degree days 0 0  
Cooling Degree Days 17 8  
Month to date cooling degree days 195 104  
Year to date cooling degree days 402 267  
Since 1 June cooling degree days 349 231  
Growing Degree Days 30 (Base 50)    
Moisture  
Dew Point 72 °F    
Average Humidity 76    
Maximum Humidity 100    
Minimum Humidity 52    
Precipitation  
Precipitation 0.03 in 0.16 in 4.72 in (1975)
Month to date precipitation 1.35 1.95  
Year to date precipitation 21.82 23.88  
Sea Level Pressure  
Sea Level Pressure 30.28 in    
Wind  
Wind Speed 2 mph (SW)    
Max Wind Speed 10 mph    
Max Gust Speed 21 mph    
Visibility 6 miles    
Events Fog , Rain    
T = Trace of Precipitation, MM = Missing Value Source: NWS Daily Summary

Daily Weather History Graph

Daily Weather History Graph

Search for Another Location

Airport:

Trip Planner

Search our weather history database for the weather conditions in past years. The results will help you decide how hot, cold, wet, or windy it might be!

Date:

Astronomy

Jul. 14, 2013 Rise Set
Actual Time 5:33 AM EDT 8:28 PM EDT
Civil Twilight 5:00 AM EDT 9:01 PM EDT
Nautical Twilight 4:18 AM EDT 9:43 PM EDT
Astronomical Twilight 3:29 AM EDT 10:31 PM EDT
Moon 11:53 AM EDT (7/14) 11:33 PM EDT (7/14)
Length of Visible Light 16h 00m
Length of Day
14h 54m
Waxing Crescent, 35% of the Moon is Illuminated
Jul 14
Waxing Crescent
Jul 15
First Quarter
Jul 22
Full
Jul 29
Last Quarter
Aug 6
New

Hourly Weather History & Observations

Time (EDT) Temp. Heat Index Dew Point Humidity Pressure Visibility Wind Dir Wind Speed Gust Speed Precip Events Conditions
12:53 AM 73.0 °F - 71.1 °F 93% 30.27 in 8.0 mi Calm Calm - N/A   Clear
1:44 AM 73.4 °F - 71.6 °F 94% 30.29 in 8.0 mi Calm Calm - N/A   Mostly Cloudy
1:53 AM 73.0 °F - 71.1 °F 93% 30.28 in 9.0 mi Calm Calm - N/A   Overcast
2:43 AM 73.4 °F - 71.6 °F 94% 30.30 in 8.0 mi Calm Calm - N/A   Overcast
2:53 AM 73.0 °F - 71.1 °F 93% 30.29 in 8.0 mi Calm Calm - N/A   Overcast
3:20 AM 73.4 °F - 71.6 °F 94% 30.30 in 8.0 mi Calm Calm - N/A   Overcast
3:33 AM 73.4 °F - 71.6 °F 94% 30.30 in 7.0 mi Calm Calm - N/A   Overcast
3:53 AM 73.9 °F - 72.0 °F 93% 30.29 in 6.0 mi Calm Calm - N/A   Overcast
4:12 AM 73.4 °F - 71.6 °F 94% 30.29 in 2.5 mi Calm Calm - 0.03 in Rain Light Rain
4:19 AM 73.4 °F - 71.6 °F 94% 30.29 in 5.0 mi Calm Calm - 0.03 in Rain Light Rain
4:53 AM 73.0 °F - 71.1 °F 93% 30.28 in 5.0 mi Calm Calm - 0.03 in   Mostly Cloudy
5:13 AM 73.4 °F - 71.6 °F 94% 30.30 in 2.5 mi Calm Calm - N/A   Partly Cloudy
5:16 AM 73.4 °F - 71.6 °F 94% 30.30 in 0.8 mi Calm Calm - N/A   Mist
5:27 AM 71.6 °F - 71.6 °F 100% 30.30 in 1.0 mi Calm Calm - N/A   Scattered Clouds
5:36 AM 71.6 °F - 71.6 °F 100% 30.30 in 2.5 mi Calm Calm - N/A   Mostly Cloudy
5:44 AM 71.6 °F - 71.6 °F 100% 30.30 in 4.0 mi Calm Calm - N/A   Mostly Cloudy
5:53 AM 72.0 °F - 71.1 °F 97% 30.30 in 1.8 mi Calm Calm - N/A   Scattered Clouds
6:01 AM 71.6 °F - 71.6 °F 100% 30.31 in 2.0 mi Calm Calm - N/A   Mostly Cloudy
6:06 AM 73.4 °F - 71.6 °F 94% 30.31 in 0.8 mi Calm Calm - N/A   Mostly Cloudy
6:15 AM 73.4 °F - 71.6 °F 94% 30.31 in 0.2 mi Calm Calm - N/A Fog Fog
6:34 AM 73.4 °F - 71.6 °F 94% 30.30 in 0.8 mi Calm Calm - N/A   Overcast
6:42 AM 73.4 °F - 71.6 °F 94% 30.30 in 1.2 mi Calm Calm - N/A   Overcast
6:53 AM 73.0 °F - 73.0 °F 100% 30.30 in 2.0 mi Calm Calm - N/A   Overcast
7:03 AM 73.4 °F - 73.4 °F 100% 30.30 in 1.8 mi Calm Calm - N/A   Overcast
7:15 AM 73.4 °F - 73.4 °F 100% 30.31 in 2.0 mi Calm Calm - N/A   Overcast
7:40 AM 75.2 °F - 73.4 °F 94% 30.31 in 3.0 mi SSW 4.6 mph - N/A   Overcast
7:53 AM 75.0 °F - 73.0 °F 94% 30.31 in 6.0 mi SW 5.8 mph - N/A   Mostly Cloudy
8:00 AM 75.2 °F - 73.4 °F 94% 30.32 in 6.0 mi SW 5.8 mph - N/A   Scattered Clouds
8:53 AM 78.1 °F - 73.9 °F 87% 30.31 in 10.0 mi SW 6.9 mph - N/A   Partly Cloudy
9:53 AM 81.0 °F 85.8 °F 73.0 °F 77% 30.30 in 10.0 mi Calm Calm - N/A   Mostly Cloudy
10:36 AM 82.4 °F 88.2 °F 73.4 °F 74% 30.31 in 10.0 mi Variable 3.5 mph - N/A   Mostly Cloudy
10:53 AM 82.9 °F 88.8 °F 73.0 °F 72% 30.29 in 10.0 mi Calm Calm - N/A   Mostly Cloudy
11:22 AM 82.4 °F 87.2 °F 71.6 °F 70% 30.30 in 10.0 mi Calm Calm - N/A   Overcast
11:53 AM 82.9 °F 88.8 °F 73.0 °F 72% 30.29 in 10.0 mi ENE 3.5 mph - N/A   Overcast
12:53 PM 87.1 °F 94.5 °F 73.0 °F 63% 30.27 in 10.0 mi Calm Calm - N/A   Mostly Cloudy
1:53 PM 88.0 °F 95.6 °F 73.0 °F 61% 30.27 in 10.0 mi Calm Calm - N/A   Overcast
2:53 PM 89.1 °F 96.0 °F 72.0 °F 57% 30.25 in 10.0 mi West 4.6 mph - N/A   Mostly Cloudy
3:53 PM 89.1 °F 94.1 °F 70.0 °F 53% 30.23 in 10.0 mi WSW 8.1 mph - N/A   Overcast
4:53 PM 90.0 °F 96.4 °F 71.1 °F 54% 30.22 in 10.0 mi WSW 6.9 mph - N/A   Scattered Clouds
5:53 PM 90.0 °F 96.4 °F 71.1 °F 54% 30.21 in 10.0 mi WSW 6.9 mph - N/A   Partly Cloudy
6:53 PM 89.1 °F 97.0 °F 73.0 °F 59% 30.20 in 10.0 mi Calm Calm - N/A   Mostly Cloudy
7:53 PM 87.1 °F 95.4 °F 73.9 °F 65% 30.20 in 10.0 mi WSW 3.5 mph - N/A   Overcast
8:53 PM 81.0 °F 86.7 °F 75.0 °F 82% 30.21 in 10.0 mi Calm Calm - N/A   Clear
9:53 PM 78.1 °F - 75.0 °F 90% 30.22 in 10.0 mi Calm Calm - N/A   Scattered Clouds
10:53 PM 79.0 °F - 75.0 °F 88% 30.22 in 10.0 mi Calm Calm - N/A   Mostly Cloudy
11:53 PM 78.1 °F - 73.9 °F 87% 30.22 in 10.0 mi Calm Calm - N/A   Overcast